Rogers, AR

4:37 AM CST on December 05, 2016 (GMT -0600)
Rogers Municipal-Carter

Weather History for KROG - February, 2013

Change the Weather History Date:

Tuesday, February 12, 2013

  Actual Average Record
Temperature  
Mean Temperature 38 °F -  
Max Temperature 44 °F 48 °F 61 °F (2009)
Min Temperature 33 °F 30 °F 12 °F (2012)
Degree Days  
Heating Degree Days 26    
Moisture  
Dew Point 30 °F    
Average Humidity 76    
Maximum Humidity 93    
Minimum Humidity 51    
Precipitation  
Precipitation 0.12 in - - ()
Sea Level Pressure  
Sea Level Pressure 30.01 in    
Wind  
Wind Speed 6 mph (NE)    
Max Wind Speed 14 mph    
Max Gust Speed -    
Visibility 8 miles    
Events Rain , Snow    
Averages and records for this station are not official NWS values.
T = Trace of Precipitation, MM = Missing Value Source: NWS Daily Summary

Daily Weather History Graph

Daily Weather History Graph

Search for Another Location

Airport or City:

Trip Planner

Search our weather history database for the weather conditions in past years. The results will help you decide how hot, cold, wet, or windy it might be!

Date:

Astronomy

Feb. 12, 2013 Rise Set
Actual Time 7:07 AM CST 5:54 PM CST
Civil Twilight 6:40 AM CST 6:21 PM CST
Nautical Twilight 6:10 AM CST 6:51 PM CST
Astronomical Twilight 5:40 AM CST 7:21 PM CST
Moon 8:10 AM CST (2/12) 8:49 PM CST (2/12)
Length of Visible Light 11h 40m
Length of Day
10h 47m
Waxing Crescent, 7% of the Moon is Illuminated
Feb 12
Waxing Crescent
Feb 17
First Quarter
Feb 25
Full
Mar 4
Last Quarter
Mar 11
New

Hourly Weather History & Observations

Time (CST) Temp. Windchill Dew Point Humidity Pressure Visibility Wind Dir Wind Speed Gust Speed Precip Events Conditions
1:57 AM 35.1 °F 30.1 °F 25.0 °F 67% 30.14 in 10.0 mi ENE 5.8 mph - N/A   Clear
2:57 AM 35.1 °F 32.2 °F 28.9 °F 78% 30.11 in 10.0 mi East 3.5 mph - N/A   Clear
3:57 AM 33.1 °F 30.0 °F 27.0 °F 78% 30.09 in 10.0 mi ENE 3.5 mph - N/A   Clear
4:57 AM 35.1 °F 30.1 °F 25.0 °F 67% 30.09 in 10.0 mi East 5.8 mph - N/A   Clear
5:57 AM 36.0 °F 29.0 °F 26.1 °F 67% 30.08 in 10.0 mi East 9.2 mph - N/A   Clear
6:57 AM 37.0 °F 29.8 °F 26.1 °F 65% 30.10 in 10.0 mi East 10.4 mph - N/A   Mostly Cloudy
11:57 AM 43.0 °F 36.0 °F 26.1 °F 51% 30.06 in 10.0 mi East 13.8 mph - N/A   Mostly Cloudy
1:57 PM 43.0 °F 38.8 °F 27.0 °F 53% 30.00 in 10.0 mi ENE 6.9 mph - N/A   Overcast
2:57 PM 43.0 °F 37.2 °F 28.0 °F 56% 29.96 in 10.0 mi ENE 10.4 mph - N/A   Overcast
3:57 PM 44.1 °F 38.6 °F 28.0 °F 53% 29.94 in 10.0 mi ENE 10.4 mph - 0.00 in   Overcast
4:57 PM 43.0 °F 37.7 °F 28.9 °F 58% 29.93 in 10.0 mi ENE 9.2 mph - 0.00 in   Overcast
5:57 PM 41.0 °F 36.4 °F 32.0 °F 70% 29.93 in 10.0 mi NE 6.9 mph - 0.00 in Rain Light Rain
5:59 PM 41.0 °F 35.8 °F 32.0 °F 70% 29.95 in 10.0 mi ENE 8.1 mph - 0.00 in Rain Light Rain
8:22 PM 35.6 °F 32.8 °F 33.8 °F 93% 29.96 in 10.0 mi North 3.5 mph - 0.00 in Rain Light Rain
8:53 PM 35.6 °F 32.8 °F 33.8 °F 93% 29.97 in 10.0 mi North 3.5 mph - 0.02 in Rain Light Rain
8:57 PM 36.0 °F - 34.0 °F 93% 29.99 in 10.0 mi Calm Calm - 0.02 in Rain Light Rain
9:14 PM 35.6 °F 29.2 °F 33.8 °F 93% 29.98 in 7.0 mi North 8.1 mph - 0.00 in Rain Light Rain
9:57 PM 35.1 °F 30.1 °F 33.1 °F 92% 30.01 in 4.0 mi North 5.8 mph - 0.02 in   Overcast
10:19 PM 33.8 °F 27.7 °F 32.0 °F 93% 29.98 in 2.0 mi NNW 6.9 mph - 0.02 in Snow Light Snow
10:24 PM 33.8 °F 29.6 °F 32.0 °F 93% 29.98 in 1.5 mi NNW 4.6 mph - 0.02 in Snow Light Snow
10:57 PM 33.1 °F 28.7 °F 30.9 °F 92% 29.99 in 1.8 mi North 4.6 mph - 0.05 in Snow Light Snow
11:57 PM 33.1 °F 28.7 °F 30.9 °F 92% 29.98 in 1.2 mi North 4.6 mph - 0.03 in Snow Light Snow